Printer-friendly version

IAU Minor Planet Center

Minor Planet Center

MPEC 2006-K70 : 2006 KE89

The following Minor Planet Electronic Circular may be linked-to from your own Web pages, but must not otherwise be redistributed electronically.


Read MPEC 2006-K69 Read MPEC 2006-K71


M.P.E.C. 2006-K70                                Issued 2006 May 29, 22:21 UT

     The Minor Planet Electronic Circulars contain information on unusual
         minor planets and routine data on comets.  They are published
   on behalf of Commission 20 of the International Astronomical Union by the
          Minor Planet Center, Smithsonian Astrophysical Observatory,
                          Cambridge, MA 02138, U.S.A.

                  Supported in part by the Brinson Foundation
                  Supported in part by the TABASGO Foundation
             Prepared using the Tamkin Foundation Computer Network

                              MPC@CFA.HARVARD.EDU
          URL http://cfa-www.harvard.edu/iau/mpc.html  ISSN 1523-6714

                                   2006 KE89

Observations:
     K06K89E* C2006 05 28.35057 18 45 30.77 +57 16 04.9          16.2 R EK070699
     K06K89E  C2006 05 28.37271 18 45 27.37 +57 18 52.9                 EK070699
     K06K89E  C2006 05 28.39484 18 45 23.83 +57 21 40.9                 EK070699
     K06K89E  C2006 05 28.41697 18 45 20.36 +57 24 28.7                 EK070699
     K06K89E  C2006 05 29.01226 18 43 49.99 +58 41 21.5                 EK070097
     K06K89E  C2006 05 29.02245 18 43 48.25 +58 42 41.2                 EK070097
     K06K89E  C2006 05 29.02433 18 43 47.84 +58 42 56.3                 EK070097
     K06K89E  C2006 05 29.02618 18 43 47.52 +58 43 10.4                 EK070097
     K06K89E  C2006 05 29.02804 18 43 47.11 +58 43 26.3                 EK070097
     K06K89E  C2006 05 29.29927 18 43 03.49 +59 19 24.8          16.0 R EK070H36
     K06K89E  C2006 05 29.30309 18 43 02.78 +59 19 55.9          16.0 R EK070H36
     K06K89E  C2006 05 29.30500 18 43 02.42 +59 20 11.6          16.1 R EK070H36
     K06K89E  C2006 05 29.30787 18 43 01.90 +59 20 34.8          16.2 R EK070H36
     K06K89E  C2006 05 29.33027 18 42 57.66 +59 23 36.1          16.5 R EK070734
     K06K89E  C2006 05 29.33069 18 42 57.60 +59 23 39.3          16.5 R EK070734
     K06K89E  C2006 05 29.33113 18 42 57.50 +59 23 43.0          16.4 R EK070734
     K06K89E  C2006 05 29.33156 18 42 57.42 +59 23 45.7          16.4 R EK070734
     K06K89E  C2006 05 29.45863 18 42 33.71 +59 40 59.5          15.9 R EK070682
     K06K89E  C2006 05 29.46375 18 42 32.65 +59 41 40.6          15.7 R EK070682
     K06K89E  C2006 05 29.46886 18 42 31.54 +59 42 21.7          15.4 R EK070682
     K06K89E  C2006 05 29.69479 18 41 52.44 +60 13 14.6          16.7 V EK070300
     K06K89E  C2006 05 29.69663 18 41 51.78 +60 13 30.7          16.5 V EK070300
     K06K89E  C2006 05 29.70220 18 41 50.28 +60 14 17.9          16.6 V EK070300
     K06K89E  C2006 05 29.70591 18 41 49.59 +60 14 49.3          16.6 V EK070300
     K06K89E  C2006 05 29.89141 18 41 16.12 +60 40 14.6          16.2 V EK070J69
     K06K89E  C2006 05 29.89237 18 41 15.95 +60 40 21.7          16.0 V EK070J69
     K06K89E  C2006 05 29.89332 18 41 15.68 +60 40 29.8          16.3 V EK070J69
     K06K89E  C2006 05 29.89637 18 41 15.11 +60 40 55.8          16.3 V EK070J69
     K06K89E  C2006 05 29.90147 18 41 14.12 +60 41 39.3          16.5 V EK070J69
     K06K89E  C2006 05 29.90425 18 41 13.61 +60 42 02.3          16.2 V EK070J69
     K06K89E  C2006 05 29.90616 18 41 13.20 +60 42 18.7          16.2 V EK070J69

Observer details:
097 Wise Observatory, Mitzpeh Ramon.  Observer D. Polishook.
300 Bisei Spaceguard Center--BATTeRS.  Observers O. A. Asami, K. Nishiyama.
    0.5-m f/2.0 reflector + CCD.
682 Kanab.  Observer E. Sheridan.  0.36-m f/5.5 Schmidt-Cassegrain + CCD.
699 Lowell Observatory-LONEOS.  Observer M. E. Van Ness.  0.59-m LONEOS
    Schmidt + CCD.
734 Farpoint Observatory.  Observer D. Tibbets.  0.7-m reflector + CCD.
H36 Sandlot Observatory, Scranton.  Observer G. Hug.  0.30-m
    Schmidt-Cassegrain + CCD.
J69 North Observatory, Clanfield.  Observer D. Briggs.  0.40-m f/4.57
    Newtonian reflector + CCD.

Orbital elements:
2006 KE89                                                Earth MOID = 0.2185 AU
Epoch 2006 Mar. 6.0 TT = JDT 2453800.5                  MPC
M 222.13057              (2000.0)            P               Q
n   1.00410973     Peri.  299.65685     +0.64710620     -0.35675100
a   0.9876777      Node    89.41713     +0.68087599     +0.66804517
e   0.7742890      Incl.   42.36235     -0.34301814     +0.65302709
P   0.98           H   16.4           G   0.15           U   9
Residuals in seconds of arc
060528 699  0.8-  0.1+    060529 H36  0.0   0.1-    060529 300  1.5-  0.6+
060528 699  0.2-  0.1-    060529 H36  0.1+  0.1-    060529 300  0.9-  1.3+
060528 699  0.4-  0.2-    060529 734  0.1+  0.0     060529 J69  0.2-  0.6+
060528 699  0.0   0.3-    060529 734  0.2+  0.2-    060529 J69  0.0   0.5-
060529 097  0.1+  0.5+    060529 734  0.1+  0.1-    060529 J69  0.6-  0.4-
060529 097  0.9+  0.1-    060529 734  0.1+  0.9-    060529 J69  0.3-  0.2-
060529 097  0.3+  0.1+    060529 682 (0.5+  2.9+)   060529 J69  0.0   0.0
060529 097  0.5+  0.4-    060529 682 (0.1+  2.5+)   060529 J69  0.4+  0.5-
060529 097  0.1-  0.9+    060529 682 (0.8-  2.3+)   060529 J69  0.2+  0.3-
060529 H36  0.1-  0.5-    060529 300 (3.2+  1.2-)
060529 H36  0.0   0.3-    060529 300  1.1+  0.4-

Ephemeris:
2006 KE89                a,e,i = 0.99, 0.77, 42                  q = 0.2229
Date    TT    R. A. (2000) Decl.     Delta      r     Elong.  Phase     V
2006 05 25    18 51.26   +50 57.3    0.370    1.135    99.5    61.7    16.7
2006 05 27    18 48.27   +54 33.2    0.345    1.111    97.4    64.7    16.6
2006 05 29    18 43.87   +58 39.4    0.321    1.088    94.6    68.2    16.5
2006 05 31    18 37.10   +63 20.9    0.299    1.063    91.3    72.4    16.4
2006 06 02    18 25.74   +68 41.6    0.278    1.038    87.1    77.3    16.4
2006 06 04    18 03.51   +74 42.2    0.261    1.012    82.1    83.1    16.4
2006 06 06    17 03.91   +81 06.3    0.246    0.986    76.3    89.7    16.5
2006 06 08    12 57.41   +85 06.7    0.236    0.959    69.6    97.1    16.7
2006 06 10    09 09.80   +79 55.4    0.230    0.931    62.2   105.2    16.9
2006 06 12    08 14.52   +71 46.0    0.229    0.902    54.5   113.6    17.4
2006 06 14    07 52.81   +63 17.1    0.233    0.872    46.7   122.1    17.9

Gareth V. Williams           (C) Copyright 2006 MPC           M.P.E.C. 2006-K70

Read MPEC 2006-K69 Read MPEC 2006-K71


Our Web policy. Index to the CBAT/MPC/ICQ pages.


Valid HTML 4.01!